Location: Newark
(52.8300°N, 8.0000°E)
Time: 16:54:48
(UTC+00:00)

STARLINK-1085 - Pass Details

Date: 29 January 2020
Orbit: 348 x 351 km, 53.0° (Epoch: 26 February)

Event Time Altitude Azimuth Distance (km) Brightness Sun altitude
Rises 17:36:51 0° 283° (WNW) 2,175 7.9 -13.6°
Reaches altitude 10° 17:38:54 10° 278° (W) 1,329 6.8 -13.9°
Maximum altitude 17:41:46 46° 203° (SSW) 486 3.6 -14.3°
Enters shadow 17:43:33 19° 136° (SE) 910 4.4 -14.6°
